Location: Biltmore Gardens
(41.6070°N, 83.4666°W)
Time: 14:29:59
(UTC+00:00)

Cosmos 44 Rocket - Pass Details

Date: 14 July 2020
Orbit: 651 x 739 km, 65.1° (Epoch: 04 August)

Event Time Altitude Azimuth Distance (km) Brightness Sun altitude
Exits shadow 04:13:03 71° 103° (ESE) 697 3.1 -23.7°
Drops below altitude 10° 04:17:37 10° 36° (NE) 2,094 6.1 -24.0°
Sets 04:19:58 0° 35° (NE) 3,023 7.1 -24.1°
